Location: Buena Vista Beach
(41.8098°N, 81.1279°W)
Time: 08:23:58
(UTC+00:00)

OAO 2 Rocket - Pass Details

Date: 29 October 2020
Orbit: 676 x 746 km, 35.0° (Epoch: 28 November)

Event Time Altitude Azimuth Distance (km) Brightness Sun altitude
Rises 23:37:04 0° 253° (WSW) 3,067 8.4 -14.5°
Reaches altitude 10° 23:39:36 10° 246° (WSW) 2,139 7.0 -15.0°
Maximum altitude 23:44:13 38° 179° (S) 1,040 4.2 -15.8°
Enters shadow 23:46:56 21° 124° (SE) 1,514 4.6 -16.3°
